Canadian, TX

3:53 AM CDT on April 23, 2017 (GMT -0500)
Hemphill County

Weather History for KHHF - December, 2013

Change the Weather History Date:

Friday, December 6, 2013

  Actual Average (KPPA) Record (KPPA)
Temperature  
Mean Temperature 16 °F -  
Max Temperature 21 °F 53 °F 76 °F (1987)
Min Temperature 11 °F 27 °F 0 °F (1972)
Degree Days  
Heating Degree Days 49    
Moisture  
Dew Point 5 °F    
Average Humidity 64    
Maximum Humidity 77    
Minimum Humidity 52    
Precipitation  
Precipitation 0.00 in - - ()
Sea Level Pressure  
Sea Level Pressure 30.40 in    
Wind  
Wind Speed 10 mph (NNE)    
Max Wind Speed 15 mph    
Max Gust Speed 21 mph    
Visibility 10 miles    
Events Snow    
Averages and records for this station are not official NWS values.
T = Trace of Precipitation, MM = Missing Value Source: NWS Daily Summary

Daily Weather History Graph

Daily Weather History Graph

Search for Another Location

Airport or City:

Trip Planner

Search our weather history database for the weather conditions in past years. The results will help you decide how hot, cold, wet, or windy it might be!

Date:

Astronomy

Dec. 06, 2013 Rise Set
Actual Time 7:38 AM CST 5:27 PM CST
Civil Twilight 7:09 AM CST 5:55 PM CST
Nautical Twilight 6:37 AM CST 6:27 PM CST
Astronomical Twilight 6:06 AM CST 6:58 PM CST
Moon 10:49 AM CST (12/6) 9:56 PM CST (12/6)
Length of Visible Light 10h 46m
Length of Day
9h 49m
Waxing Crescent, 19% of the Moon is Illuminated
Dec 6
Waxing Crescent
Dec 9
First Quarter
Dec 17
Full
Dec 25
Last Quarter
Jan 1
New

Hourly Weather History & Observations

Time (CST) Temp. Windchill Dew Point Humidity Pressure Visibility Wind Dir Wind Speed Gust Speed Precip Events Conditions
5:35 AM 14.9 °F 3.1 °F 8.2 °F 75% 30.29 in 10.0 mi NNE 9.2 mph - N/A   Overcast
5:55 AM 14.9 °F 0.3 °F 8.8 °F 77% 30.30 in 7.0 mi NNE 13.8 mph 18.4 mph N/A Snow Light Snow
6:15 AM 14.9 °F 1.6 °F 8.6 °F 76% 30.29 in 10.0 mi North 11.5 mph - N/A Snow Light Snow
6:35 AM 14.5 °F 0.5 °F 7.9 °F 75% 30.29 in 10.0 mi North 12.7 mph 20.7 mph N/A Snow Light Snow
6:55 AM 14.0 °F -0.2 °F 7.3 °F 75% 30.29 in 10.0 mi North 12.7 mph 19.6 mph N/A   Overcast
7:15 AM 14.0 °F 1.2 °F 7.5 °F 75% 30.31 in 10.0 mi North 10.4 mph - N/A   Overcast
7:35 AM 14.0 °F 2.0 °F 7.5 °F 75% 30.32 in 10.0 mi NNE 9.2 mph - N/A   Overcast
7:55 AM 14.0 °F 1.2 °F 7.3 °F 75% 30.33 in 10.0 mi NNE 10.4 mph - N/A   Overcast
8:15 AM 14.5 °F 2.7 °F 7.5 °F 74% 30.33 in 10.0 mi North 9.2 mph - N/A   Overcast
8:35 AM 14.5 °F -0.7 °F 7.2 °F 73% 30.35 in 10.0 mi NNE 15.0 mph 19.6 mph N/A   Overcast
8:55 AM 14.9 °F 2.3 °F 6.8 °F 70% 30.35 in 10.0 mi NNE 10.4 mph - N/A   Overcast
9:15 AM 14.9 °F 2.3 °F 7.5 °F 73% 30.36 in 10.0 mi North 10.4 mph - N/A   Overcast
9:35 AM 14.9 °F 1.6 °F 7.7 °F 73% 30.37 in 7.0 mi North 11.5 mph - N/A Snow Light Snow
9:55 AM 15.8 °F 3.4 °F 7.7 °F 70% 30.37 in 7.0 mi NNE 10.4 mph 18.4 mph N/A Snow Light Snow
10:15 AM 16.5 °F 4.3 °F 8.1 °F 69% 30.39 in 10.0 mi North 10.4 mph - N/A   Overcast
10:35 AM 16.5 °F 4.3 °F 7.3 °F 67% 30.40 in 10.0 mi NNE 10.4 mph - N/A   Overcast
10:55 AM 16.7 °F 4.5 °F 8.2 °F 69% 30.41 in 10.0 mi NNE 10.4 mph - N/A   Overcast
11:15 AM 16.7 °F 4.5 °F 7.7 °F 68% 30.40 in 7.0 mi North 10.4 mph - N/A Snow Light Snow
11:35 AM 17.1 °F 3.0 °F 7.9 °F 67% 30.41 in 7.0 mi NNE 13.8 mph 17.3 mph N/A Snow Light Snow
11:55 AM 17.8 °F 5.2 °F 8.2 °F 66% 30.40 in 7.0 mi North 11.5 mph - N/A Snow Light Snow
12:15 PM 18.0 °F 4.8 °F 7.9 °F 65% 30.40 in 7.0 mi NNE 12.7 mph - N/A Snow Light Snow
12:35 PM 18.0 °F 7.7 °F 7.5 °F 64% 30.40 in 10.0 mi NNE 8.1 mph - N/A Snow Light Snow
12:55 PM 18.3 °F 7.3 °F 7.3 °F 62% 30.39 in 10.0 mi NNE 9.2 mph - N/A   Overcast
1:15 PM 18.0 °F 8.7 °F 6.6 °F 61% 30.39 in 10.0 mi North 6.9 mph 10.4 mph N/A Snow Light Snow
1:35 PM 19.0 °F 9.0 °F 6.8 °F 59% 30.38 in 10.0 mi North 8.1 mph - N/A Snow Light Snow
1:55 PM 19.2 °F 9.3 °F 6.6 °F 58% 30.37 in 10.0 mi NNE 8.1 mph - N/A   Overcast
2:15 PM 19.8 °F 8.3 °F 6.3 °F 56% 30.37 in 10.0 mi NNE 10.4 mph - N/A   Overcast
2:35 PM 19.9 °F 9.3 °F 5.9 °F 55% 30.38 in 10.0 mi NE 9.2 mph - N/A   Overcast
2:55 PM 20.5 °F 9.2 °F 5.9 °F 53% 30.37 in 10.0 mi NE 10.4 mph 16.1 mph N/A   Overcast
3:15 PM 21.0 °F 11.4 °F 6.4 °F 53% 30.37 in 10.0 mi NNE 8.1 mph - N/A   Mostly Cloudy
3:35 PM 21.0 °F 11.4 °F 6.4 °F 53% 30.37 in 10.0 mi NNE 8.1 mph - N/A   Scattered Clouds
3:55 PM 20.8 °F 13.2 °F 5.7 °F 52% 30.37 in 10.0 mi ENE 5.8 mph 9.2 mph N/A   Clear
4:15 PM 20.8 °F 10.4 °F 5.5 °F 52% 30.37 in 10.0 mi NE 9.2 mph - N/A   Clear
4:35 PM 20.3 °F 10.6 °F 5.4 °F 52% 30.39 in 10.0 mi NE 8.1 mph - N/A   Clear
5:55 PM 17.4 °F 9.1 °F 4.6 °F 57% 30.42 in 10.0 mi NNE 5.8 mph - N/A   Clear
6:15 PM 16.7 °F 8.3 °F 4.8 °F 60% 30.42 in 10.0 mi NNE 5.8 mph - N/A   Clear
6:35 PM 15.6 °F 8.3 °F 4.8 °F 62% 30.43 in 10.0 mi NNE 4.6 mph - N/A   Clear
6:55 PM 15.1 °F 9.4 °F 4.8 °F 64% 30.45 in 10.0 mi North 3.5 mph - N/A   Clear
7:15 PM 14.2 °F 8.4 °F 4.5 °F 65% 30.46 in 10.0 mi North 3.5 mph - N/A   Clear
7:35 PM 14.0 °F 6.5 °F 4.1 °F 65% 30.47 in 10.0 mi NNE 4.6 mph - N/A   Clear
7:55 PM 13.3 °F 5.6 °F 3.7 °F 66% 30.47 in 10.0 mi NNE 4.6 mph - N/A   Clear
8:15 PM 12.7 °F 3.6 °F 3.2 °F 66% 30.47 in 10.0 mi NNE 5.8 mph - N/A   Clear
8:35 PM 13.3 °F 3.0 °F 2.3 °F 62% 30.47 in 10.0 mi NNE 6.9 mph - N/A   Clear
8:55 PM 13.6 °F 1.6 °F 2.1 °F 60% 30.47 in 10.0 mi NNE 9.2 mph - N/A   Clear
9:15 PM 13.6 °F 0.7 °F 1.8 °F 59% 30.47 in 10.0 mi NNE 10.4 mph - N/A   Clear
9:35 PM 13.5 °F 0.5 °F 0.9 °F 57% 30.47 in 10.0 mi NE 10.4 mph - N/A   Clear
9:55 PM 12.9 °F 0.7 °F 0.1 °F 57% 30.48 in 10.0 mi NE 9.2 mph - N/A   Clear
10:15 PM 12.6 °F 2.2 °F 0.3 °F 58% 30.49 in 10.0 mi NE 6.9 mph - N/A   Clear
10:35 PM 12.2 °F -0.2 °F 0.1 °F 59% 30.49 in 10.0 mi NE 9.2 mph - N/A   Clear
10:55 PM 12.2 °F 1.7 °F -0.4 °F 57% 30.50 in 10.0 mi NE 6.9 mph - N/A   Clear
11:15 PM 11.5 °F 0.9 °F -0.6 °F 58% 30.51 in 10.0 mi NE 6.9 mph - N/A   Clear
11:35 PM 11.3 °F 1.9 °F -0.4 °F 59% 30.52 in 10.0 mi NE 5.8 mph - N/A   Clear
11:55 PM 11.1 °F 3.1 °F -0.4 °F 60% 30.52 in 10.0 mi ENE 4.6 mph - N/A   Clear